sat.trackr.live / text

‹ back to catalog

STARLINK-31455

NORAD 59309 · 2024-056P

PAYLOAD ACTIVE UNKNOWN

§ Identity

Operator
Country
US
Launch date
2024-03-24
Launch site
AFETR
Launch vehicle
Mass (kg)
RCS (m²)

Purposes: comms

External: N2YO · Heavens-Above · Gunter

§ Orbital elements

Epoch: 2026-09-19T05:59:24.614880Z

Period
94.27 min
Inclination
43.0036°
Eccentricity
0.0001020
Mean motion
15.27573196 rev/d
Perigee alt
482.4 km
Apogee alt
483.8 km
Semi-major
6,861.2 km
B*
3.2254e-5
RAAN
214.4009°
Arg perigee
276.1707°
Mean anomaly
83.9028°
Rev number
14,079

§ Raw data

STARLINK-314551 59309U 24056P   26262.24959045  .00000625  00000+0  32254-4 0  99912 59309  43.0036 214.4009 0001020 276.1707  83.9028 15.27573196140794

JSON: /api/v1/satellites/59309 · /tle

For live sub-satellite position, see the globe view (requires WebGL).

§ Visibility from observer

Set your observer location to see the next 7 days of passes ≥ 10°. The values pass through the URL so the page stays shareable.

No JS? Fill the form by hand. The geolocation button needs JavaScript.